Grayling, MI

11:27 AM EDT on April 26, 2017 (GMT -0400)
Grayling

Weather History for KGOV - July, 2014

Change the Weather History Date:

Monday, July 28, 2014

  Actual Average (KHTL) Record (KHTL)
Temperature  
Mean Temperature 56 °F -  
Max Temperature 62 °F 77 °F 98 °F (1931)
Min Temperature 50 °F 54 °F 40 °F (1978)
Degree Days  
Heating Degree Days 9    
Growing Degree Days 6 (Base 50)    
Moisture  
Dew Point 50 °F    
Average Humidity 75    
Maximum Humidity 98    
Minimum Humidity 55    
Precipitation  
Precipitation 0.00 in - - ()
Sea Level Pressure  
Sea Level Pressure 29.97 in    
Wind  
Wind Speed 8 mph (NNW)    
Max Wind Speed 15 mph    
Max Gust Speed 21 mph    
Visibility 10 miles    
Events      
Averages and records for this station are not official NWS values.
T = Trace of Precipitation, MM = Missing Value Source: NWS Daily Summary

Daily Weather History Graph

Daily Weather History Graph

Search for Another Location

Airport or City:

Trip Planner

Search our weather history database for the weather conditions in past years. The results will help you decide how hot, cold, wet, or windy it might be!

Date:

Astronomy

Jul. 28, 2014 Rise Set
Actual Time 6:20 AM EDT 9:09 PM EDT
Civil Twilight 5:46 AM EDT 9:43 PM EDT
Nautical Twilight 5:03 AM EDT 10:26 PM EDT
Astronomical Twilight 4:13 AM EDT 11:16 PM EDT
Moon 8:08 AM EDT (7/28) 9:42 PM EDT (7/28)
Length of Visible Light 15h 56m
Length of Day
14h 48m
Waxing Crescent, 3% of the Moon is Illuminated
Jul 28
Waxing Crescent
Aug 3
First Quarter
Aug 10
Full
Aug 17
Last Quarter
Aug 25
New

Hourly Weather History & Observations

Time (EDT) Temp. Dew Point Humidity Pressure Visibility Wind Dir Wind Speed Gust Speed Precip Events Conditions
12:15 AM 61.7 °F 60.4 °F 96% 29.84 in 10.0 mi NNW 10.4 mph - N/A   Overcast
12:55 AM 61.7 °F 59.2 °F 91% 29.84 in 10.0 mi NNW 8.1 mph - N/A   Overcast
1:15 AM 61.7 °F 59.0 °F 91% 29.85 in 10.0 mi NNW 6.9 mph - N/A   Overcast
1:34 AM 61.7 °F 59.0 °F 91% 29.86 in 10.0 mi North 8.1 mph - N/A   Overcast
1:55 AM 61.3 °F 57.0 °F 86% 29.86 in 10.0 mi North 10.4 mph - N/A   Overcast
2:15 AM 60.3 °F 54.3 °F 81% 29.86 in 10.0 mi North 9.2 mph - N/A   Overcast
2:34 AM 59.0 °F 53.6 °F 82% 29.87 in 10.0 mi North 6.9 mph - N/A   Mostly Cloudy
2:55 AM 59.0 °F 54.5 °F 85% 29.87 in 10.0 mi North 8.1 mph - N/A   Mostly Cloudy
3:15 AM 59.0 °F 54.9 °F 86% 29.87 in 10.0 mi North 6.9 mph - N/A   Scattered Clouds
3:34 AM 56.7 °F 53.4 °F 89% 29.87 in 10.0 mi North 8.1 mph - N/A   Scattered Clouds
4:15 AM 56.5 °F 53.1 °F 88% 29.87 in 10.0 mi NNW 4.6 mph - N/A   Overcast
4:34 AM 56.5 °F 54.5 °F 93% 29.88 in 10.0 mi NNW 3.5 mph - N/A   Mostly Cloudy
4:55 AM 56.5 °F 55.4 °F 96% 29.89 in 10.0 mi NNW 6.9 mph - N/A   Mostly Cloudy
5:15 AM 56.5 °F 54.7 °F 94% 29.89 in 10.0 mi NNW 5.8 mph - N/A   Overcast
5:34 AM 56.5 °F 53.8 °F 91% 29.90 in 10.0 mi North 5.8 mph - N/A   Overcast
5:55 AM 55.9 °F 53.2 °F 91% 29.90 in 10.0 mi North 6.9 mph - N/A   Scattered Clouds
6:15 AM 54.0 °F 51.4 °F 91% 29.91 in 10.0 mi NNW 5.8 mph - N/A   Clear
6:34 AM 54.0 °F 51.8 °F 92% 29.92 in 10.0 mi NNW 5.8 mph - N/A   Scattered Clouds
6:55 AM 54.0 °F 51.8 °F 92% 29.93 in 10.0 mi NNW 4.6 mph - N/A   Overcast
7:15 AM 55.4 °F 51.8 °F 88% 29.94 in 10.0 mi North 5.8 mph - N/A   Overcast
7:34 AM 55.0 °F 51.8 °F 89% 29.94 in 10.0 mi North 6.9 mph - N/A   Overcast
7:55 AM 56.1 °F 51.8 °F 85% 29.95 in 10.0 mi North 9.2 mph - N/A   Overcast
8:15 AM 56.5 °F 51.8 °F 84% 29.96 in 10.0 mi North 9.2 mph - N/A   Overcast
8:34 AM 56.5 °F 50.9 °F 82% 29.97 in 10.0 mi North 10.4 mph - N/A   Overcast
8:55 AM 56.5 °F 50.4 °F 80% 29.97 in 10.0 mi North 10.4 mph - N/A   Overcast
9:15 AM 56.5 °F 50.0 °F 79% 29.98 in 10.0 mi NNW 6.9 mph - N/A   Overcast
9:34 AM 56.5 °F 50.2 °F 79% 29.98 in 10.0 mi North 9.2 mph - N/A   Overcast
9:55 AM 56.5 °F 50.2 °F 79% 29.98 in 10.0 mi NNW 11.5 mph - N/A   Overcast
10:15 AM 56.5 °F 50.0 °F 79% 29.99 in 10.0 mi NNW 6.9 mph - N/A   Overcast
10:34 AM 56.5 °F 49.8 °F 78% 29.99 in 10.0 mi NNW 11.5 mph - N/A   Overcast
10:55 AM 56.5 °F 49.1 °F 76% 30.00 in 10.0 mi NNW 10.4 mph 16.1 mph N/A   Overcast
11:15 AM 57.9 °F 48.0 °F 70% 30.00 in 10.0 mi North 12.7 mph 18.4 mph N/A   Mostly Cloudy
11:34 AM 56.8 °F 45.7 °F 66% 30.00 in 10.0 mi North 12.7 mph - N/A   Overcast
11:55 AM 57.4 °F 45.1 °F 64% 30.01 in 10.0 mi NNW 15.0 mph - N/A   Overcast
12:15 PM 56.7 °F 43.7 °F 62% 30.01 in 10.0 mi North 11.5 mph 17.3 mph N/A   Overcast
12:34 PM 56.8 °F 43.2 °F 60% 30.01 in 10.0 mi North 10.4 mph - N/A   Overcast
12:55 PM 56.5 °F 44.2 °F 64% 30.01 in 10.0 mi NW 12.7 mph 19.6 mph N/A   Overcast
1:15 PM 56.5 °F 43.5 °F 62% 30.01 in 10.0 mi NNW 12.7 mph 17.3 mph N/A   Overcast
1:34 PM 57.7 °F 44.1 °F 60% 30.01 in 10.0 mi NNW 11.5 mph 16.1 mph N/A   Overcast
1:55 PM 59.0 °F 44.4 °F 58% 30.02 in 10.0 mi NNW 10.4 mph 20.7 mph N/A   Overcast
2:15 PM 57.6 °F 43.7 °F 60% 30.02 in 10.0 mi North 15.0 mph - N/A   Overcast
2:34 PM 59.0 °F 44.1 °F 58% 30.02 in 10.0 mi North 10.4 mph 17.3 mph N/A   Overcast
2:55 PM 60.1 °F 44.1 °F 55% 30.02 in 10.0 mi North 10.4 mph - N/A   Overcast
3:15 PM 60.3 °F 44.6 °F 56% 30.02 in 10.0 mi North 6.9 mph - N/A   Overcast
3:35 PM 60.4 °F 45.1 °F 57% 30.02 in 10.0 mi NNW 10.4 mph - N/A   Overcast
4:15 PM 61.7 °F 45.9 °F 56% 30.02 in 10.0 mi NW 10.4 mph - N/A   Overcast
4:34 PM 61.9 °F 45.5 °F 55% 30.02 in 10.0 mi NNW 8.1 mph - N/A   Overcast
4:55 PM 62.1 °F 46.2 °F 56% 30.01 in 10.0 mi NNW 11.5 mph 17.3 mph N/A   Overcast
5:15 PM 61.7 °F 45.7 °F 56% 30.02 in 10.0 mi NNW 12.7 mph - N/A   Overcast
5:34 PM 62.1 °F 46.4 °F 56% 30.02 in 10.0 mi NW 11.5 mph - N/A   Overcast
5:55 PM 61.7 °F 45.7 °F 56% 30.02 in 10.0 mi NW 11.5 mph - N/A   Mostly Cloudy
6:15 PM 62.2 °F 46.6 °F 57% 30.02 in 10.0 mi NW 12.7 mph - N/A   Mostly Cloudy
6:34 PM 61.7 °F 46.6 °F 58% 30.02 in 10.0 mi NW 9.2 mph - N/A   Mostly Cloudy
6:55 PM 62.4 °F 46.8 °F 57% 30.01 in 10.0 mi NNW 6.9 mph - N/A   Scattered Clouds
7:15 PM 62.1 °F 46.6 °F 57% 30.01 in 10.0 mi NW 8.1 mph - N/A   Clear
7:35 PM 61.7 °F 46.0 °F 56% 30.01 in 10.0 mi NW 8.1 mph - N/A   Clear
7:55 PM 61.5 °F 46.9 °F 59% 30.01 in 10.0 mi WNW 5.8 mph - N/A   Clear
8:15 PM 60.3 °F 47.5 °F 63% 30.01 in 10.0 mi WNW 4.6 mph - N/A   Clear
8:35 PM 59.0 °F 48.2 °F 67% 30.01 in 10.0 mi WNW 5.8 mph - N/A   Clear
8:55 PM 56.8 °F 48.4 °F 73% 30.01 in 10.0 mi West 4.6 mph - N/A   Clear
9:15 PM 56.5 °F 50.9 °F 82% 30.01 in 10.0 mi West 4.6 mph - N/A   Clear
9:35 PM 56.5 °F 50.9 °F 82% 30.02 in 10.0 mi WNW 5.8 mph - N/A   Scattered Clouds
9:55 PM 55.0 °F 50.2 °F 84% 30.02 in 10.0 mi WNW 5.8 mph - N/A   Scattered Clouds
10:15 PM 54.9 °F 50.2 °F 84% 30.02 in 10.0 mi WNW 5.8 mph - N/A   Clear
10:55 PM 54.0 °F 50.9 °F 89% 30.01 in 10.0 mi Calm Calm - N/A   Mostly Cloudy
11:15 PM 52.9 °F 50.9 °F 93% 30.01 in 10.0 mi Calm Calm - N/A   Scattered Clouds
11:34 PM 50.4 °F 49.8 °F 98% 30.00 in 10.0 mi Calm Calm - N/A   Clear
11:55 PM 51.3 °F 48.4 °F 90% 30.00 in 10.0 mi Calm Calm - N/A   Clear